Location: Congrier
(47.8099°N, 1.1170°W)
Time: 15:21:15
(UTC+00:00)

NOSS 3-3 (C) - Pass Details

Date: 04 October 2023
Orbit: 753 x 1459 km, 63.4° (Epoch: 14 October)

Event Time Altitude Azimuth Distance (km) Brightness Sun altitude
Rises 05:33:47 0° 197° (SSW) 3,249 6.6 -6.4°
Reaches altitude 10° 05:36:09 10° 191° (S) 2,373 5.9 -6.0°
Maximum altitude 05:41:18 46° 119° (ESE) 1,161 5.0 -5.2°
Drops below altitude 10° 05:47:15 10° 48° (NE) 2,740 7.1 -4.2°
Sets 05:50:08 0° 43° (NE) 3,807 7.8 -3.7°
